Weather History for KHOP - May, 2013

Change the Weather History Date:

Saturday, May 4, 2013

  Actual Average Record
Temperature  
Mean Temperature 46 °F -  
Max Temperature 50 °F 74 °F 86 °F (2014)
Min Temperature 42 °F 54 °F 37 °F (2005)
Degree Days  
Heating Degree Days 19    
Moisture  
Dew Point 44 °F    
Average Humidity 96    
Maximum Humidity 100    
Minimum Humidity 66    
Precipitation  
Precipitation 1.00 in - - ()
Sea Level Pressure  
Sea Level Pressure 29.94 in    
Wind  
Wind Speed 7 mph (SW)    
Max Wind Speed 13 mph    
Max Gust Speed -    
Visibility 8 miles    
Events Rain    
Averages and records for this station are not official NWS values.
T = Trace of Precipitation, MM = Missing Value Source: NWS Daily Summary

Daily Weather History Graph

Daily Weather History Graph

Search for Another Location

Airport or City:

Trip Planner

Search our weather history database for the weather conditions in past years. The results will help you decide how hot, cold, wet, or windy it might be!

Date:

Astronomy

May. 04, 2013 Rise Set
Actual Time 5:52 AM CDT 7:41 PM CDT
Civil Twilight 5:24 AM CDT 8:09 PM CDT
Nautical Twilight 4:50 AM CDT 8:43 PM CDT
Astronomical Twilight 4:14 AM CDT 9:19 PM CDT
Moon 2:42 AM CDT (5/4) 2:46 PM CDT (5/4)
Length of Visible Light 14h 44m
Length of Day
13h 48m
Waning Crescent, 27% of the Moon is Illuminated
May 4
Waning Crescent
May 9
New
May 17
First Quarter
May 24
Full
May 31
Last Quarter

Hourly Weather History & Observations

Time (CDT) Temp. Windchill Dew Point Humidity Pressure Visibility Wind Dir Wind Speed Gust Speed Precip Events Conditions
12:03 AM 46.4 °F 41.9 °F 46.4 °F 100% 29.94 in 7.0 mi WSW 9.2 mph - N/A Rain Light Rain
12:04 AM 46.4 °F 41.9 °F 46.4 °F 100% 29.94 in 6.0 mi WSW 9.2 mph - N/A Rain Rain
12:34 AM 44.6 °F 38.4 °F 44.6 °F 100% 29.94 in 10.0 mi SW 12.7 mph - N/A Rain Light Rain
12:51 AM 44.6 °F 40.7 °F 44.6 °F 100% 29.93 in 8.0 mi SSW 6.9 mph - N/A Rain Light Rain
12:58 AM 44.6 °F 40.2 °F 44.6 °F 100% 29.94 in 8.0 mi SSW 8.1 mph - 0.10 in Rain Light Rain
1:25 AM 44.6 °F 39.2 °F 44.6 °F 100% 29.91 in 10.0 mi West 10.4 mph - N/A   Light Drizzle
1:29 AM 44.6 °F 38.8 °F 44.6 °F 100% 29.91 in 10.0 mi WSW 11.5 mph - N/A   Light Drizzle
1:55 AM 44.6 °F 40.7 °F 44.6 °F 100% 29.91 in 3.0 mi WSW 6.9 mph - N/A Rain Rain
1:58 AM 44.1 °F 40.1 °F 44.1 °F 100% 29.90 in 3.0 mi WSW 6.9 mph - 0.08 in Rain Rain
2:26 AM 42.8 °F 38.6 °F 42.8 °F 100% 29.90 in 2.5 mi WSW 6.9 mph - N/A Rain Rain
2:40 AM 42.8 °F 39.3 °F 42.8 °F 100% 29.90 in 3.0 mi SW 5.8 mph - N/A Rain Rain
2:58 AM 43.5 °F 39.4 °F 43.5 °F 100% 29.90 in 6.0 mi SW 6.9 mph - 0.17 in   Drizzle
3:15 AM 42.8 °F 41.1 °F 42.8 °F 100% 29.89 in 8.0 mi SW 3.5 mph - N/A   Light Drizzle
3:21 AM 42.8 °F 38.6 °F 42.8 °F 100% 29.90 in 10.0 mi SW 6.9 mph - N/A   Light Drizzle
3:37 AM 42.8 °F 38.0 °F 42.8 °F 100% 29.90 in 4.0 mi SW 8.1 mph - N/A Rain Rain
3:40 AM 42.8 °F 39.3 °F 42.8 °F 100% 29.89 in 4.0 mi WSW 5.8 mph - N/A Rain Rain
3:58 AM 43.3 °F 41.7 °F 43.3 °F 100% 29.89 in 6.0 mi WSW 3.5 mph - 0.08 in Rain Light Rain
3:59 AM 42.8 °F 41.1 °F 42.8 °F 100% 29.89 in 6.0 mi SW 3.5 mph - N/A Rain Light Rain
4:01 AM 42.8 °F 41.1 °F 42.8 °F 100% 29.89 in 6.0 mi SW 3.5 mph - N/A Rain Light Rain
4:13 AM 42.8 °F 39.3 °F 42.8 °F 100% 29.90 in 8.0 mi WSW 5.8 mph - N/A Rain Light Rain
4:16 AM 42.8 °F 38.6 °F 42.8 °F 100% 29.90 in 7.0 mi WSW 6.9 mph - N/A Rain Light Rain
4:50 AM 42.8 °F 39.3 °F 42.8 °F 100% 29.90 in 5.0 mi West 5.8 mph - N/A Rain Rain
4:56 AM 42.8 °F 41.1 °F 42.8 °F 100% 29.90 in 4.0 mi West 3.5 mph - N/A Rain Rain
4:58 AM 43.0 °F 41.3 °F 43.0 °F 100% 29.90 in 4.0 mi West 3.5 mph - 0.10 in Rain Rain
5:09 AM 42.8 °F - 42.8 °F 100% 29.89 in 5.0 mi West 2.3 mph - N/A Rain Rain
5:21 AM 42.8 °F 41.1 °F 42.8 °F 100% 29.90 in 6.0 mi SW 3.5 mph - N/A Rain Light Rain
5:35 AM 42.8 °F 38.6 °F 42.8 °F 100% 29.90 in 7.0 mi WSW 6.9 mph - N/A Rain Light Rain
5:46 AM 42.8 °F 40.1 °F 42.8 °F 100% 29.90 in 6.0 mi WSW 4.6 mph - N/A Rain Light Rain
5:58 AM 43.7 °F 41.1 °F 43.7 °F 100% 29.91 in 5.0 mi West 4.6 mph - 0.11 in Rain Light Rain
6:58 AM 43.7 °F 39.7 °F 43.7 °F 100% 29.93 in 5.0 mi SW 6.9 mph - 0.11 in   Overcast
7:04 AM 42.8 °F 38.6 °F 42.8 °F 100% 29.92 in 6.0 mi SW 6.9 mph - N/A Rain Light Rain
7:08 AM 42.8 °F 38.6 °F 42.8 °F 100% 29.92 in 6.0 mi SW 6.9 mph - N/A Rain Light Rain
7:10 AM 42.8 °F 38.6 °F 42.8 °F 100% 29.92 in 6.0 mi SW 6.9 mph - N/A Rain Light Rain
7:11 AM 42.8 °F 39.3 °F 42.8 °F 100% 29.92 in 7.0 mi SW 5.8 mph - N/A Rain Light Rain
7:23 AM 42.8 °F 40.1 °F 42.8 °F 100% 29.91 in 8.0 mi SW 4.6 mph - N/A Rain Light Rain
7:30 AM 42.8 °F 40.1 °F 42.8 °F 100% 29.92 in 9.0 mi SW 4.6 mph - N/A Rain Light Rain
7:42 AM 44.6 °F 39.7 °F 44.6 °F 100% 29.93 in 6.0 mi SW 9.2 mph - N/A Rain Light Rain
7:57 AM 42.8 °F 38.0 °F 42.8 °F 100% 29.93 in 9.0 mi WSW 8.1 mph - N/A   Light Drizzle
7:58 AM 42.8 °F 38.0 °F 42.8 °F 100% 29.94 in 8.0 mi WSW 8.1 mph - 0.06 in Rain Light Rain
8:00 AM 42.8 °F 38.6 °F 42.8 °F 100% 29.93 in 5.0 mi WSW 6.9 mph - N/A Rain Light Rain
8:13 AM 44.6 °F 40.7 °F 44.6 °F 100% 29.93 in 5.0 mi SW 6.9 mph - N/A Rain Light Rain
8:14 AM 44.6 °F 40.2 °F 44.6 °F 100% 29.93 in 5.0 mi SW 8.1 mph - N/A Rain Light Rain
8:16 AM 44.6 °F 40.2 °F 44.6 °F 100% 29.93 in 6.0 mi SW 8.1 mph - N/A Rain Light Rain
8:39 AM 42.8 °F 38.6 °F 42.8 °F 100% 29.93 in 5.0 mi WSW 6.9 mph - N/A Rain Light Rain
8:40 AM 42.8 °F 38.6 °F 42.8 °F 100% 29.93 in 5.0 mi WSW 6.9 mph - N/A Rain Light Rain
8:57 AM 44.6 °F 39.7 °F 44.6 °F 100% 29.93 in 8.0 mi West 9.2 mph - N/A Rain Light Rain
8:58 AM 44.6 °F 39.7 °F 44.6 °F 100% 29.94 in 9.0 mi WSW 9.2 mph - 0.10 in Rain Light Rain
8:59 AM 44.6 °F 39.2 °F 44.6 °F 100% 29.93 in 9.0 mi WSW 10.4 mph - N/A   Light Drizzle
9:04 AM 44.6 °F 38.4 °F 44.6 °F 100% 29.94 in 10.0 mi WSW 12.7 mph - N/A   Light Drizzle
9:08 AM 44.6 °F 38.8 °F 44.6 °F 100% 29.95 in 9.0 mi SW 11.5 mph - N/A Rain Light Rain
9:09 AM 44.6 °F 38.8 °F 44.6 °F 100% 29.95 in 9.0 mi SW 11.5 mph - N/A Rain Light Rain
9:34 AM 44.6 °F 39.2 °F 44.6 °F 100% 29.95 in 10.0 mi WSW 10.4 mph - N/A   Light Drizzle
9:44 AM 44.6 °F 40.2 °F 44.6 °F 100% 29.95 in 7.0 mi West 8.1 mph - N/A   Heavy Drizzle
9:49 AM 42.8 °F 37.5 °F 42.8 °F 100% 29.96 in 7.0 mi WSW 9.2 mph - N/A   Light Drizzle
9:58 AM 43.7 °F 39.7 °F 43.7 °F 100% 29.97 in 10.0 mi WSW 6.9 mph - 0.02 in   Light Drizzle
10:02 AM 44.6 °F 39.7 °F 44.6 °F 100% 29.96 in 9.0 mi WSW 9.2 mph - N/A   Light Drizzle
10:09 AM 44.6 °F 40.2 °F 44.6 °F 100% 29.96 in 10.0 mi West 8.1 mph - N/A   Light Drizzle
10:17 AM 44.6 °F 40.2 °F 44.6 °F 100% 29.96 in 10.0 mi WSW 8.1 mph - N/A   Overcast
10:25 AM 44.6 °F 41.4 °F 44.6 °F 100% 29.96 in 10.0 mi WSW 5.8 mph - N/A   Overcast
10:29 AM 44.6 °F 40.7 °F 44.6 °F 100% 29.96 in 10.0 mi West 6.9 mph - N/A   Overcast
10:41 AM 44.6 °F 41.4 °F 44.6 °F 100% 29.96 in 10.0 mi West 5.8 mph - N/A   Overcast
10:58 AM 45.1 °F 41.4 °F 44.6 °F 98% 29.98 in 10.0 mi WSW 6.9 mph - 0.00 in   Overcast
11:39 AM 44.6 °F 41.4 °F 44.6 °F 100% 29.97 in 10.0 mi WSW 5.8 mph - N/A   Light Drizzle
11:48 AM 44.6 °F 43.1 °F 44.6 °F 100% 29.97 in 10.0 mi West 3.5 mph - N/A   Overcast
11:58 AM 45.7 °F 43.4 °F 44.6 °F 96% 29.99 in 10.0 mi SW 4.6 mph - 0.00 in   Overcast
12:15 PM 46.4 °F 41.9 °F 44.6 °F 93% 29.98 in 10.0 mi South 9.2 mph - N/A   Light Drizzle
12:26 PM 46.4 °F 42.9 °F 42.8 °F 87% 29.97 in 10.0 mi SW 6.9 mph - N/A   Overcast
12:45 PM 46.4 °F 43.5 °F 41.0 °F 81% 29.97 in 10.0 mi SW 5.8 mph - N/A   Overcast
12:58 PM 46.6 °F - 40.5 °F 79% 29.98 in 10.0 mi SSW 3.5 mph - 0.00 in   Overcast
1:58 PM 47.8 °F - 40.6 °F 76% 29.98 in 10.0 mi South 3.5 mph - N/A   Overcast
2:02 PM 48.2 °F - 41.0 °F 76% 29.96 in 10.0 mi Variable 1.2 mph - N/A   Overcast
2:08 PM 48.2 °F - 42.8 °F 82% 29.95 in 10.0 mi SE 5.8 mph - N/A   Overcast
2:18 PM 48.2 °F - 41.0 °F 76% 29.96 in 10.0 mi Variable 1.2 mph - N/A   Overcast
2:58 PM 50.4 °F - 40.6 °F 69% 29.97 in 10.0 mi ESE 2.3 mph - N/A   Overcast
3:08 PM 50.0 °F - 41.0 °F 71% 29.96 in 10.0 mi Variable 1.2 mph - N/A   Overcast
3:41 PM 50.0 °F - 39.2 °F 66% 29.96 in 10.0 mi SSE 2.3 mph - N/A   Overcast
3:44 PM 50.0 °F - 41.0 °F 71% 29.96 in 10.0 mi SSE 2.3 mph - N/A   Overcast
3:58 PM 49.6 °F - 40.6 °F 71% 29.97 in 10.0 mi SSE 1.2 mph - N/A   Overcast
3:59 PM 50.0 °F - 41.0 °F 71% 29.96 in 10.0 mi Variable 2.3 mph - N/A   Overcast
4:58 PM 49.6 °F - 42.3 °F 76% 29.97 in 10.0 mi NE 4.6 mph - N/A   Overcast
5:58 PM 49.6 °F - 41.0 °F 72% 29.97 in 10.0 mi NE 5.8 mph - N/A   Mostly Cloudy
6:58 PM 48.9 °F - 44.4 °F 84% 29.97 in 10.0 mi ENE 6.9 mph - N/A   Overcast
7:58 PM 48.2 °F - 45.1 °F 89% 29.98 in 10.0 mi ENE 6.9 mph - 0.01 in   Overcast
8:25 PM 48.2 °F - 46.4 °F 93% 29.97 in 10.0 mi ENE 2.3 mph - N/A   Light Drizzle
8:40 PM 48.2 °F - 46.4 °F 93% 29.96 in 10.0 mi ENE 2.3 mph - N/A   Mostly Cloudy
8:48 PM 48.2 °F - 46.4 °F 93% 29.97 in 10.0 mi East 5.8 mph - N/A   Light Drizzle
8:58 PM 47.7 °F - 47.1 °F 98% 29.97 in 10.0 mi NE 5.8 mph - 0.00 in   Drizzle
9:12 PM 46.4 °F 45.2 °F 46.4 °F 100% 29.97 in 10.0 mi SE 3.5 mph - N/A   Mostly Cloudy
9:34 PM 46.4 °F 42.4 °F 44.6 °F 93% 29.97 in 10.0 mi ENE 8.1 mph - N/A   Light Drizzle
9:39 PM 46.4 °F 42.4 °F 44.6 °F 93% 29.96 in 9.0 mi ENE 8.1 mph - N/A Rain Light Rain
9:54 PM 46.4 °F 41.9 °F 46.4 °F 100% 29.97 in 10.0 mi ENE 9.2 mph - N/A Rain Light Rain
9:58 PM 46.4 °F 41.9 °F 46.4 °F 100% 29.97 in 10.0 mi ENE 9.2 mph - 0.04 in Rain Light Rain
10:44 PM 46.4 °F 45.2 °F 46.4 °F 100% 29.95 in 10.0 mi ENE 3.5 mph - N/A   Mostly Cloudy
10:58 PM 45.9 °F 43.6 °F 45.9 °F 100% 29.95 in 10.0 mi NE 4.6 mph - 0.02 in   Overcast
11:11 PM 46.4 °F 44.3 °F 46.4 °F 100% 29.95 in 10.0 mi East 4.6 mph - N/A   Light Drizzle
11:20 PM 46.4 °F 44.3 °F 46.4 °F 100% 29.95 in 10.0 mi East 4.6 mph - N/A   Overcast
11:25 PM 46.4 °F 44.3 °F 46.4 °F 100% 29.95 in 10.0 mi East 4.6 mph - N/A   Overcast
11:35 PM 46.4 °F 43.5 °F 46.4 °F 100% 29.95 in 10.0 mi NE 5.8 mph - N/A   Drizzle
11:41 PM 46.4 °F 42.9 °F 46.4 °F 100% 29.94 in 10.0 mi NE 6.9 mph - N/A   Light Drizzle
11:58 PM 46.0 °F 43.1 °F 46.0 °F 100% 29.96 in 10.0 mi NE 5.8 mph - 0.00 in   Light Drizzle
11:59 PM 46.4 °F 42.9 °F 46.4 °F 100% 29.95 in 10.0 mi NE 6.9 mph - N/A   Light Drizzle